Regional Weather Roundup
Issued by NWS

Home | Current Version | Previous Version | Graphics & Text | Print | Product List | Glossary On
Versions: 1 2 3 4 5 6 7 8 9 10 11 12 13 14 15 16 17 18 19 20 21 22 23 24 25 26 27
000
ASUS45 KSLC 212210
RWRUT

UTAH REGIONAL WEATHER ROUNDUP
NATIONAL WEATHER SERVICE SALT LAKE CITY UT
400 PM MDT TUE MAR 21 2017

UTZ001>011-023>025-212300-

NORTHERN UTAH

CITY           SKY/WX    TMP DP  RH WIND       PRES   REMARKS
BRIGHAM CITY     N/A     71  29  21 S17G23    29.88S
DUGWAY         PTSUNNY   73  27  17 S16G22    29.83
HILL AFB       SUNNY     70  29  22 SW17G23   29.89F
LOGAN            N/A     71  35  26 SW15      29.88F
OGDEN            N/A     72  29  20 SW18      29.88F
SALT LAKE CITY PTSUNNY   74  30  19 S20G29    29.86F
WENDOVER       PTSUNNY   73  28  19 S10       29.80F
HEBER CITY       N/A     64  27  24 S14G21    29.95S

$$

UTZ011>015-024>027-212300-

CENTRAL/NORTHEAST UTAH

CITY           SKY/WX    TMP DP  RH WIND       PRES   REMARKS
PROVO AIRPORT    N/A     72  35  25 S18       29.91F
MOAB/CANYONLAN   N/A     75  23  14 SW10      29.95F
DELTA            N/A     72  23  16 S29G35    29.91F
PRICE          CLOUDY    65  25  22 S10       30.02F
RICHFIELD      MOSUNNY   70  28  21 S20       29.97F
ROOSEVELT      MOSUNNY   70  32  24 CALM      29.99F
VERNAL         CLOUDY    69  34  27 W9        29.98F

$$

UTZ013>016-019>022-027-212300-

SOUTHERN UTAH

CITY           SKY/WX    TMP DP  RH WIND       PRES   REMARKS
BRYCE CANYON   PTSUNNY   59  30  33 S13G20    30.14F
CEDAR CITY       N/A     66  26  22 S23G40    30.01F
MILFORD          N/A     72  26  18 SW28G38   29.95S
ST GEORGE        N/A     80  30  16 SW13      29.92F
HANKSVILLE       N/A     73  23  15 SW16G28   29.97F
KANAB          SUNNY     73  27  17 SW9G18    30.06F
BLANDING       CLOUDY    68  23  18 SW12G18   30.16S

$$

REGIONAL REPORTS     COLORADO/ARIZONA

CITY           SKY/WX    TMP DP  RH WIND       PRES   REMARKS
CRAIG, CO      CLOUDY    67  21  17 W15G22    30.04F
GRAND JUNCTION MOSUNNY   73  22  14 S15       29.99F
RIFLE, CO      MOSUNNY   71  22  15 SW9G17    30.02F
MONTROSE, CO   MOSUNNY   72  18  13 SW18G31   30.09F
CORTEZ, CO     MOSUNNY   71  27  19 S9        30.11F
COLORADO CITY    N/A     73  32  21 SW14G22   30.05F
PAGE, AZ         N/A     77  18  11 N8        30.00F
GRAND CANYON     N/A     68  20  16 SW21G29   30.13F
KINGMAN, AZ      N/A     79  11   7 SW23      29.99F
FLAGSTAFF, AZ    N/A     64  23  21 SW23G30   30.17F

$$

REGIONAL REPORTS    NEVADA/IDAHO/WYOMING

CITY           SKY/WX    TMP DP  RH WIND       PRES   REMARKS
LAS VEGAS, NV    N/A     82  34  17 SW20G30   29.89F
ELY, NY        PTSUNNY   64  31  28 S32G45    29.93F
ELKO, NV         N/A     68  23  18 S17G26    29.80F
POCATELLO, ID  MOSUNNY   71  34  25 S18G25    29.84F
BURLEY, ID       N/A     73  29  19 S20G26    29.77F
FORT BRIDGER,  CLOUDY    58  32  37 SW6       30.05S
EVANSTON, WY   CLOUDY    60  28  29 SW20G26   30.02S
ROCK SPRINGS,  LGT RAIN  57  32  38 NW16G29   30.01R
KEMMERER, WY     N/A     52  32  46 N6        30.03F

$$




USA.gov is the U.S. government's official web portal to all federal, state and local government web resources and services.